Location: Newark
(49.1939°N, 0.8136°E)
Time: 13:01:03
(UTC+00:00)

Envisat - Pass Details

Date: 22 November 2019
Orbit: 764 x 766 km, 98.1° (Epoch: 07 December)

Event Time Altitude Azimuth Distance (km) Brightness Sun altitude
Rises 18:45:00 0° 195° (SSW) 3,220 6.4 -25.2°
Reaches altitude 10° 18:47:35 10° 206° (SSW) 2,299 5.8 -25.6°
Maximum altitude 18:51:57 29° 266° (W) 1,386 4.9 -26.3°
Drops below altitude 10° 18:56:22 10° 326° (NW) 2,313 5.9 -27.0°
Sets 18:58:59 0° 338° (NNW) 3,244 6.5 -27.5°
